This is the latest recevied weather packets stored in our database for station/object KE8GJZ-1. If no packets are shown the sender has not sent any weather packets the latest 10 day(s).
| Time | Temp. | Humidity | Pressure | Rain* | Wind** | Luminosity | Snow |
|---|---|---|---|---|---|---|---|
| 1778111072 | 11.11° C | 44% | 1010.7 hPa | 0 mm | - | 13 W/m² | - |
| 1778110769 | 11.11° C | 45% | 1010.8 hPa | 0 mm | - | 15 W/m² | - |
| 1778110466 | 11.11° C | 44% | 1010.8 hPa | 0 mm | - | 23 W/m² | - |
| 1778110162 | 11.11° C | 42% | 1010.9 hPa | 0 mm | - | 24 W/m² | - |
| 1778109858 | 11.11° C | 43% | 1010.7 hPa | 0 mm | - | 31 W/m² | - |
| 1778109554 | 11.11° C | 43% | 1010.5 hPa | 0 mm | - | 38 W/m² | - |
| 1778109252 | 11.11° C | 45% | 1010.6 hPa | 0 mm | - | 46 W/m² | - |
| 1778108949 | 11.67° C | 44% | 1010.8 hPa | 0 mm | - | 52 W/m² | - |
| 1778108646 | 11.67° C | 46% | 1010.6 hPa | 0 mm | - | 55 W/m² | - |
| 1778108342 | 11.67° C | 45% | 1010.4 hPa | 0 mm | - | 47 W/m² | - |
| 1778108039 | 11.67° C | 45% | 1010.3 hPa | 0 mm | - | 42 W/m² | - |
| 1778107736 | 11.67° C | 44% | 1010.4 hPa | 0 mm | - | 33 W/m² | - |
| 1778107434 | 11.67° C | 45% | 1010.6 hPa | 0 mm | - | 39 W/m² | - |
| 1778107130 | 11.67° C | 42% | 1010.5 hPa | 0 mm | - | 37 W/m² | - |
| 1778106825 | 11.67° C | 44% | 1010.6 hPa | 0 mm | - | 59 W/m² | - |
| 1778106523 | 11.67° C | 43% | 1010.5 hPa | 0 mm | - | 88 W/m² | - |
| 1778106218 | 11.67° C | 42% | 1010.4 hPa | 0 mm | - | 86 W/m² | - |
| 1778105916 | 11.67° C | 45% | 1010.6 hPa | 0 mm | - | 58 W/m² | - |
| 1778105613 | 12.22° C | 43% | 1010.2 hPa | 0 mm | - | 60 W/m² | - |
| 1778105311 | 12.22° C | 43% | 1010.5 hPa | 0 mm | - | 53 W/m² | - |
| 1778105006 | 12.22° C | 42% | 1010.8 hPa | 0 mm | - | 65 W/m² | - |
| 1778104703 | 12.22° C | 42% | 1010.5 hPa | 0 mm | - | 59 W/m² | - |
| 1778104399 | 12.22° C | 45% | 1010.8 hPa | 0 mm | - | 101 W/m² | - |
| 1778104095 | 12.22° C | 44% | 1010.6 hPa | 0 mm | - | 100 W/m² | - |
| 1778103792 | 12.78° C | 42% | 1010.4 hPa | 0 mm | - | 98 W/m² | - |
* Rain latest hour (hover to see other rain measurements)
** Current wind speed in m/s (hover to see current wind gust speed)